Zurück zum Katalog

COSMOS 2412

GLONASS

AktivNavigationMEO
NORAD 28510·PAYLOAD·🇷🇺 Russia

Gestartet Dec 26, 2004 von Baikonur Cosmodrome

Loading…

Nächste Überflüge (nächste 24 Stunden)

TLE

AktuellSource: Space-Track

Epoche: Sep 14, 2026, 02:48 UTC

1 28510U 04053C   26257.11708360 -.00000030  00000-0  00000-0 0  9990
2 28510  64.2812  57.1903 0006241 235.9792 301.1144  2.13103174169019

Verfolge COSMOS 2412 in Echtzeit mit AllMySat

Download on the App Store